Location: Alma
(38.7220°N, 88.9090°W)
Time: 14:48:10
(UTC-06:00)

Vanguard 2 Rocket - Pass Details

Date: 22 November 2019
Orbit: 554 x 3326 km, 32.9° (Epoch: 14 December)

Event Time Altitude Azimuth Distance (km) Brightness Sun altitude
Rises 06:36:26 0° 259° (W) 3,892 9.6 -2.4°
Reaches altitude 10° 06:40:18 10° 236° (SW) 3,376 9.5 -1.7°
Maximum altitude 06:44:49 15° 205° (SSW) 3,497 9.9 -0.9°
Drops below altitude 10° 06:50:36 10° 175° (S) 4,510 10.9 0.1°
Sets 06:57:31 0° 157° (SSE) 6,166 12.1 1.3°
